Time,TemperatureF,DewpointF,PressureIn,WindDirection,WindDirectionDegrees,WindSpeedMPH,WindSpeedGustMPH,Humidity,HourlyPrecipIn,Conditions,Clouds,dailyrainin,SoftwareType,DateUTC
2013-04-04 00:02:00,42.0,34.0,-100.00,SW,220,17.0,22.0,70,0.00,,,0.00,,2013-04-04 05:02:00,
2013-04-04 00:12:00,42.0,34.0,-100.00,SW,225,17.0,21.0,69,0.00,,,0.00,,2013-04-04 05:12:00,
2013-04-04 00:23:00,42.0,34.0,-100.00,SW,230,14.0,20.0,69,0.00,,,0.00,,2013-04-04 05:23:00,
2013-04-04 00:32:00,43.0,34.0,-100.00,WSW,255,12.0,17.0,68,0.00,,,0.00,,2013-04-04 05:32:00,
2013-04-04 00:42:00,43.0,32.0,-100.00,WSW,255,13.0,18.0,67,0.00,,,0.00,,2013-04-04 05:42:00,
2013-04-04 00:52:00,42.0,32.0,-100.00,West,260,14.0,19.0,68,0.00,,,0.00,,2013-04-04 05:52:00,
2013-04-04 01:02:00,41.0,32.0,-100.00,WNW,285,12.0,17.0,70,0.00,,,0.00,,2013-04-04 06:02:00,
2013-04-04 01:12:00,41.0,34.0,-100.00,WNW,290,11.0,17.0,72,0.00,,,0.00,,2013-04-04 06:12:00,
2013-04-04 01:22:00,40.0,34.0,-100.00,NW,310,12.0,15.0,76,0.00,,,0.00,,2013-04-04 06:22:00,
2013-04-04 01:32:00,39.0,34.0,-100.00,NW,315,14.0,19.0,80,0.00,,,0.00,,2013-04-04 06:32:00,
2013-04-04 01:42:00,38.0,34.0,-100.00,NW,315,14.0,20.0,83,0.00,,,0.00,,2013-04-04 06:42:00,
2013-04-04 01:52:00,38.0,34.0,-100.00,NNW,330,11.0,17.0,85,0.00,,,0.00,,2013-04-04 06:52:00,
2013-04-04 02:02:00,37.0,34.0,-100.00,NW,315,9.0,12.0,86,0.00,,,0.00,,2013-04-04 07:02:00,
2013-04-04 02:12:00,37.0,34.0,-100.00,NW,320,10.0,12.0,87,0.00,,,0.00,,2013-04-04 07:12:00,
2013-04-04 02:22:00,36.0,34.0,-100.00,NW,315,7.0,11.0,88,0.00,,,0.00,,2013-04-04 07:22:00,
2013-04-04 02:32:00,36.0,34.0,-100.00,NW,320,7.0,12.0,88,0.00,,,0.00,,2013-04-04 07:32:00,
2013-04-04 02:42:00,36.0,34.0,-100.00,West,280,6.0,11.0,87,0.00,,,0.00,,2013-04-04 07:42:00,
2013-04-04 02:52:00,35.0,32.0,-100.00,WNW,295,7.0,9.0,89,0.00,,,0.00,,2013-04-04 07:52:00,
2013-04-04 03:02:00,35.0,32.0,-100.00,WNW,300,7.0,10.0,89,0.00,,,0.00,,2013-04-04 08:02:00,
2013-04-04 03:12:00,35.0,32.0,-100.00,NW,315,7.0,12.0,89,0.00,,,0.00,,2013-04-04 08:12:00,
2013-04-04 03:22:00,35.0,32.0,-100.00,NNW,340,10.0,14.0,84,0.00,,,0.00,,2013-04-04 08:22:00,
2013-04-04 03:32:00,35.0,30.0,-100.00,North,0,13.0,16.0,80,0.00,,,0.00,,2013-04-04 08:32:00,
2013-04-04 03:42:00,36.0,28.0,-100.00,North,0,8.0,17.0,76,0.00,,,0.00,,2013-04-04 08:42:00,
2013-04-04 03:52:00,35.0,28.0,-100.00,NNW,340,7.0,16.0,75,0.00,,,0.00,,2013-04-04 08:52:00,
2013-04-04 04:02:00,35.0,28.0,-100.00,NNW,335,7.0,12.0,75,0.00,,,0.00,,2013-04-04 09:02:00,
2013-04-04 04:12:00,35.0,28.0,-100.00,NNW,335,10.0,13.0,74,0.00,,,0.00,,2013-04-04 09:12:00,
2013-04-04 04:22:00,35.0,27.0,-100.00,North,0,11.0,16.0,71,0.00,,,0.00,,2013-04-04 09:22:00,
2013-04-04 04:33:00,35.0,27.0,-100.00,North,0,13.0,17.0,70,0.00,,,0.00,,2013-04-04 09:33:00,
2013-04-04 04:43:00,35.0,27.0,-100.00,North,0,14.0,18.0,69,0.00,,,0.00,,2013-04-04 09:43:00,
2013-04-04 04:53:00,35.0,25.0,-100.00,North,0,14.0,18.0,69,0.00,,,0.00,,2013-04-04 09:53:00,
2013-04-04 05:03:00,34.0,25.0,-100.00,North,0,15.0,18.0,68,0.00,,,0.00,,2013-04-04 10:03:00,
2013-04-04 05:12:00,34.0,25.0,-100.00,North,0,13.0,21.0,68,0.00,,,0.00,,2013-04-04 10:12:00,
2013-04-04 05:23:00,34.0,25.0,-100.00,North,0,14.0,20.0,68,0.00,,,0.00,,2013-04-04 10:23:00,
2013-04-04 05:33:00,34.0,25.0,-100.00,North,0,13.0,20.0,69,0.00,,,0.00,,2013-04-04 10:33:00,
2013-04-04 05:42:00,34.0,25.0,-100.00,NNW,340,10.0,20.0,70,0.00,,,0.00,,2013-04-04 10:42:00,
2013-04-04 05:53:00,33.0,25.0,-100.00,North,350,9.0,14.0,71,0.00,,,0.00,,2013-04-04 10:53:00,
2013-04-04 06:02:00,33.0,25.0,-100.00,North,0,13.0,21.0,71,0.00,,,0.00,,2013-04-04 11:02:00,
2013-04-04 06:12:00,33.0,25.0,-100.00,North,355,10.0,15.0,72,0.00,,,0.00,,2013-04-04 11:12:00,
2013-04-04 06:22:00,33.0,25.0,-100.00,North,0,12.0,17.0,73,0.00,,,0.00,,2013-04-04 11:22:00,
2013-04-04 06:32:00,32.0,25.0,-100.00,North,0,14.0,20.0,74,0.00,,,0.00,,2013-04-04 11:32:00,
2013-04-04 06:42:00,32.0,25.0,-100.00,NNW,345,9.0,17.0,75,0.00,,,0.00,,2013-04-04 11:42:00,
2013-04-04 07:02:00,32.0,25.0,-100.00,NNW,335,9.0,12.0,75,0.00,,,0.00,,2013-04-04 12:02:00,
2013-04-04 07:12:00,31.0,25.0,-100.00,NNW,335,7.0,11.0,75,0.00,,,0.00,,2013-04-04 12:12:00,
2013-04-04 07:22:00,31.0,25.0,-100.00,NNW,335,11.0,15.0,77,0.00,,,0.00,,2013-04-04 12:22:00,
2013-04-04 07:32:00,31.0,25.0,-100.00,NNW,335,9.0,14.0,79,0.00,,,0.00,,2013-04-04 12:32:00,
2013-04-04 07:42:00,31.0,25.0,-100.00,NNW,335,9.0,12.0,79,0.00,,,0.00,,2013-04-04 12:42:00,
2013-04-04 07:52:00,31.0,25.0,-100.00,NNW,335,8.0,13.0,80,0.00,,,0.00,,2013-04-04 12:52:00,
2013-04-04 08:02:00,31.0,25.0,-100.00,NNW,330,7.0,12.0,80,0.00,,,0.00,,2013-04-04 13:02:00,
2013-04-04 08:12:00,31.0,25.0,-100.00,NNW,340,9.0,12.0,80,0.00,,,0.00,,2013-04-04 13:12:00,
2013-04-04 08:22:00,31.0,25.0,-100.00,North,350,10.0,15.0,80,0.00,,,0.00,,2013-04-04 13:22:00,
2013-04-04 08:32:00,31.0,27.0,-100.00,NNW,345,11.0,15.0,80,0.00,,,0.00,,2013-04-04 13:32:00,
2013-04-04 08:42:00,31.0,27.0,-100.00,NNW,335,9.0,15.0,80,0.00,,,0.00,,2013-04-04 13:42:00,
2013-04-04 08:52:00,31.0,27.0,-100.00,NNW,340,11.0,17.0,80,0.00,,,0.00,,2013-04-04 13:52:00,
2013-04-04 09:03:00,32.0,27.0,-100.00,North,0,9.0,16.0,80,0.00,,,0.00,,2013-04-04 14:03:00,
2013-04-04 09:12:00,32.0,27.0,-100.00,North,0,11.0,15.0,79,0.00,,,0.00,,2013-04-04 14:12:00,
2013-04-04 09:22:00,32.0,27.0,-100.00,North,0,10.0,15.0,78,0.00,,,0.00,,2013-04-04 14:22:00,
2013-04-04 09:32:00,33.0,27.0,-100.00,North,0,10.0,16.0,77,0.00,,,0.00,,2013-04-04 14:32:00,
2013-04-04 09:42:00,33.0,27.0,-100.00,North,0,9.0,13.0,77,0.00,,,0.00,,2013-04-04 14:42:00,
2013-04-04 09:52:00,33.0,27.0,-100.00,North,355,10.0,16.0,75,0.00,,,0.00,,2013-04-04 14:52:00,
2013-04-04 10:02:00,33.0,27.0,-100.00,NNW,340,11.0,17.0,75,0.00,,,0.00,,2013-04-04 15:02:00,
2013-04-04 10:12:00,33.0,27.0,-100.00,NNW,345,11.0,15.0,74,0.00,,,0.00,,2013-04-04 15:12:00,
2013-04-04 10:22:00,34.0,27.0,-100.00,North,0,10.0,19.0,74,0.00,,,0.00,,2013-04-04 15:22:00,
2013-04-04 10:33:00,34.0,27.0,-100.00,NNW,340,14.0,19.0,73,0.00,,,0.00,,2013-04-04 15:33:00,
2013-04-04 10:43:00,35.0,27.0,-100.00,North,0,14.0,20.0,71,0.00,,,0.00,,2013-04-04 15:43:00,
2013-04-04 10:53:00,34.0,27.0,-100.00,North,0,16.0,20.0,70,0.00,,,0.00,,2013-04-04 15:53:00,
2013-04-04 11:03:00,35.0,27.0,-100.00,North,0,16.0,19.0,70,0.00,,,0.00,,2013-04-04 16:03:00,
2013-04-04 11:12:00,35.0,27.0,-100.00,North,0,12.0,19.0,70,0.00,,,0.00,,2013-04-04 16:12:00,
2013-04-04 11:23:00,35.0,27.0,-100.00,North,5,12.0,21.0,68,0.00,,,0.00,,2013-04-04 16:23:00,
2013-04-04 11:32:00,36.0,27.0,-100.00,North,0,14.0,19.0,67,0.00,,,0.00,,2013-04-04 16:32:00,
2013-04-04 11:42:00,36.0,25.0,-100.00,North,10,17.0,24.0,64,0.00,,,0.00,,2013-04-04 16:42:00,
2013-04-04 11:53:00,36.0,25.0,-100.00,North,0,15.0,22.0,62,0.00,,,0.00,,2013-04-04 16:53:00,
2013-04-04 12:02:00,36.0,25.0,-100.00,North,0,17.0,21.0,62,0.00,,,0.00,,2013-04-04 17:02:00,
2013-04-04 12:13:00,36.0,25.0,-100.00,North,0,12.0,19.0,61,0.00,,,0.00,,2013-04-04 17:13:00,
2013-04-04 12:22:00,37.0,25.0,-100.00,North,0,15.0,21.0,59,0.00,,,0.00,,2013-04-04 17:22:00,
2013-04-04 12:33:00,37.0,23.0,-100.00,North,5,15.0,21.0,57,0.00,,,0.00,,2013-04-04 17:33:00,
2013-04-04 12:42:00,37.0,23.0,-100.00,North,0,14.0,21.0,57,0.00,,,0.00,,2013-04-04 17:42:00,
2013-04-04 12:52:00,37.0,23.0,-100.00,North,0,15.0,21.0,58,0.00,,,0.00,,2013-04-04 17:52:00,
2013-04-04 13:02:00,37.0,23.0,-100.00,North,0,11.0,23.0,56,0.00,,,0.00,,2013-04-04 18:02:00,
2013-04-04 13:12:00,37.0,23.0,-100.00,North,0,12.0,20.0,58,0.00,,,0.00,,2013-04-04 18:12:00,
2013-04-04 13:22:00,36.0,23.0,-100.00,NNW,340,15.0,18.0,59,0.00,,,0.00,,2013-04-04 18:22:00,
2013-04-04 13:32:00,37.0,23.0,-100.00,North,0,12.0,17.0,59,0.00,,,0.00,,2013-04-04 18:32:00,
2013-04-04 13:42:00,36.0,23.0,-100.00,NNW,340,14.0,17.0,59,0.00,,,0.00,,2013-04-04 18:42:00,
2013-04-04 13:52:00,36.0,23.0,-100.00,NNW,345,14.0,20.0,58,0.00,,,0.00,,2013-04-04 18:52:00,
2013-04-04 14:02:00,36.0,23.0,-100.00,North,355,17.0,22.0,58,0.00,,,0.00,,2013-04-04 19:02:00,
2013-04-04 14:12:00,36.0,23.0,-100.00,North,0,17.0,24.0,58,0.00,,,0.00,,2013-04-04 19:12:00,
2013-04-04 14:22:00,36.0,23.0,-100.00,North,0,17.0,24.0,57,0.00,,,0.00,,2013-04-04 19:22:00,
2013-04-04 14:32:00,35.0,21.0,-100.00,North,350,18.0,24.0,58,0.00,,,0.00,,2013-04-04 19:32:00,
2013-04-04 14:42:00,36.0,23.0,-100.00,North,0,17.0,21.0,58,0.00,,,0.00,,2013-04-04 19:42:00,
2013-04-04 14:52:00,35.0,23.0,-100.00,North,350,14.0,23.0,58,0.00,,,0.00,,2013-04-04 19:52:00,
2013-04-04 15:03:00,35.0,21.0,-100.00,North,0,16.0,21.0,57,0.00,,,0.00,,2013-04-04 20:03:00,
2013-04-04 15:12:00,36.0,23.0,-100.00,North,0,13.0,21.0,57,0.00,,,0.00,,2013-04-04 20:12:00,
2013-04-04 15:22:00,36.0,21.0,-100.00,North,0,14.0,26.0,56,0.00,,,0.00,,2013-04-04 20:22:00,
2013-04-04 15:32:00,36.0,21.0,-100.00,North,0,16.0,24.0,55,0.00,,,0.00,,2013-04-04 20:32:00,
2013-04-04 15:42:00,35.0,21.0,-100.00,North,0,16.0,24.0,56,0.00,,,0.00,,2013-04-04 20:42:00,
2013-04-04 15:52:00,36.0,21.0,-100.00,North,0,17.0,22.0,56,0.00,,,0.00,,2013-04-04 20:52:00,
2013-04-04 16:02:00,36.0,21.0,-100.00,North,0,14.0,21.0,57,0.00,,,0.00,,2013-04-04 21:02:00,
2013-04-04 16:12:00,36.0,21.0,-100.00,North,0,14.0,23.0,55,0.00,,,0.00,,2013-04-04 21:12:00,
2013-04-04 16:22:00,36.0,21.0,-100.00,North,0,15.0,24.0,53,0.00,,,0.00,,2013-04-04 21:22:00,
2013-04-04 16:32:00,35.0,19.0,-100.00,NNW,345,17.0,24.0,53,0.00,,,0.00,,2013-04-04 21:32:00,
2013-04-04 16:43:00,35.0,19.0,-100.00,North,0,13.0,23.0,54,0.00,,,0.00,,2013-04-04 21:43:00,
2013-04-04 16:52:00,35.0,19.0,-100.00,NNW,345,12.0,23.0,53,0.00,,,0.00,,2013-04-04 21:52:00,
2013-04-04 17:03:00,34.0,19.0,-100.00,North,0,16.0,23.0,52,0.00,,,0.00,,2013-04-04 22:03:00,
2013-04-04 17:12:00,34.0,19.0,-100.00,North,0,14.0,22.0,53,0.00,,,0.00,,2013-04-04 22:12:00,
2013-04-04 17:23:00,34.0,19.0,-100.00,North,0,18.0,23.0,53,0.00,,,0.00,,2013-04-04 22:23:00,
2013-04-04 17:33:00,34.0,19.0,-100.00,North,0,16.0,22.0,53,0.00,,,0.00,,2013-04-04 22:33:00,
2013-04-04 17:42:00,34.0,19.0,-100.00,NNW,340,15.0,23.0,55,0.00,,,0.00,,2013-04-04 22:42:00,
2013-04-04 17:52:00,34.0,19.0,-100.00,North,355,14.0,21.0,56,0.00,,,0.00,,2013-04-04 22:52:00,
2013-04-04 18:02:00,34.0,19.0,-100.00,NNW,345,12.0,20.0,56,0.00,,,0.00,,2013-04-04 23:02:00,
2013-04-04 18:12:00,33.0,19.0,-100.00,NNW,345,15.0,21.0,57,0.00,,,0.00,,2013-04-04 23:12:00,
2013-04-04 18:22:00,34.0,21.0,-100.00,North,5,14.0,18.0,58,0.00,,,0.00,,2013-04-04 23:22:00,
2013-04-04 18:32:00,33.0,21.0,-100.00,North,350,13.0,19.0,60,0.00,,,0.00,,2013-04-04 23:32:00,
2013-04-04 18:42:00,33.0,21.0,-100.00,North,0,12.0,19.0,60,0.00,,,0.00,,2013-04-04 23:42:00,
2013-04-04 18:52:00,32.0,21.0,-100.00,North,0,13.0,20.0,61,0.00,,,0.00,,2013-04-04 23:52:00,
2013-04-04 19:02:00,32.0,21.0,-100.00,North,0,15.0,22.0,61,0.00,,,0.00,,2013-04-05 00:02:00,
2013-04-04 19:12:00,32.0,19.0,-100.00,North,0,15.0,22.0,61,0.00,,,0.00,,2013-04-05 00:12:00,
2013-04-04 19:22:00,31.0,19.0,-100.00,North,355,11.0,21.0,62,0.00,,,0.00,,2013-04-05 00:22:00,
2013-04-04 19:32:00,31.0,21.0,-100.00,North,0,12.0,21.0,63,0.00,,,0.00,,2013-04-05 00:32:00,
2013-04-04 19:42:00,31.0,19.0,-100.00,North,0,13.0,20.0,63,0.00,,,0.00,,2013-04-05 00:42:00,
2013-04-04 19:52:00,31.0,19.0,-100.00,North,0,12.0,18.0,63,0.00,,,0.00,,2013-04-05 00:52:00,
2013-04-04 20:02:00,30.0,19.0,-100.00,North,0,12.0,15.0,64,0.00,,,0.00,,2013-04-05 01:02:00,
2013-04-04 20:12:00,30.0,19.0,-100.00,North,0,10.0,13.0,66,0.00,,,0.00,,2013-04-05 01:12:00,
2013-04-04 20:22:00,29.0,19.0,-100.00,North,0,9.0,15.0,67,0.00,,,0.00,,2013-04-05 01:22:00,
2013-04-04 20:32:00,29.0,19.0,-100.00,North,355,9.0,13.0,67,0.00,,,0.00,,2013-04-05 01:32:00,
2013-04-04 20:42:00,29.0,19.0,-100.00,North,0,7.0,12.0,68,0.00,,,0.00,,2013-04-05 01:42:00,
2013-04-04 20:52:00,28.0,19.0,-100.00,North,0,9.0,12.0,69,0.00,,,0.00,,2013-04-05 01:52:00,
2013-04-04 21:03:00,28.0,19.0,-100.00,North,0,9.0,12.0,70,0.00,,,0.00,,2013-04-05 02:03:00,
2013-04-04 21:12:00,28.0,19.0,-100.00,North,0,9.0,12.0,70,0.00,,,0.00,,2013-04-05 02:12:00,
2013-04-04 21:22:00,27.0,19.0,-100.00,North,0,7.0,12.0,71,0.00,,,0.00,,2013-04-05 02:22:00,
2013-04-04 21:32:00,27.0,19.0,-100.00,North,0,9.0,13.0,71,0.00,,,0.00,,2013-04-05 02:32:00,
2013-04-04 21:42:00,27.0,19.0,-100.00,North,0,7.0,12.0,71,0.00,,,0.00,,2013-04-05 02:42:00,
2013-04-04 21:52:00,27.0,19.0,-100.00,North,0,7.0,9.0,72,0.00,,,0.00,,2013-04-05 02:52:00,
2013-04-04 22:02:00,26.0,19.0,-100.00,North,0,6.0,9.0,73,0.00,,,0.00,,2013-04-05 03:02:00,
2013-04-04 22:12:00,26.0,19.0,-100.00,North,0,7.0,9.0,73,0.00,,,0.00,,2013-04-05 03:12:00,
2013-04-04 22:22:00,26.0,19.0,-100.00,North,355,7.0,10.0,74,0.00,,,0.00,,2013-04-05 03:22:00,
2013-04-04 22:32:00,26.0,18.0,-100.00,NNW,345,7.0,9.0,74,0.00,,,0.00,,2013-04-05 03:32:00,
2013-04-04 22:43:00,25.0,18.0,-100.00,North,355,6.0,9.0,74,0.00,,,0.00,,2013-04-05 03:43:00,
2013-04-04 22:53:00,25.0,18.0,-100.00,NNW,340,7.0,9.0,74,0.00,,,0.00,,2013-04-05 03:53:00,
2013-04-04 23:02:00,25.0,18.0,-100.00,North,355,7.0,10.0,74,0.00,,,0.00,,2013-04-05 04:02:00,
2013-04-04 23:12:00,25.0,18.0,-100.00,North,350,6.0,9.0,75,0.00,,,0.00,,2013-04-05 04:12:00,
2013-04-04 23:22:00,25.0,18.0,-100.00,NNW,335,7.0,9.0,75,0.00,,,0.00,,2013-04-05 04:22:00,
2013-04-04 23:32:00,24.0,18.0,-100.00,NNW,345,7.0,9.0,75,0.00,,,0.00,,2013-04-05 04:32:00,
2013-04-04 23:42:00,24.0,18.0,-100.00,North,0,6.0,9.0,76,0.00,,,0.00,,2013-04-05 04:42:00,
2013-04-04 23:52:00,24.0,18.0,-100.00,NNW,340,7.0,9.0,76,0.00,,,0.00,,2013-04-05 04:52:00,